CAPE
790 822 976 625 594 73 41 95 45 87 121 98 100 106 3 11 172 1 79 10 4 73 4 113 772 978 452 754 815 364 808 958 1110 922 734 816 1195 1174 1078 1453 1125 1163 1077 1108 448 384 427 532 1434
1016 1057 1010 975 152 49 129 166 167 76 96 6 23 134 33 63 73 74 24 0 100 109 58 100 813 918 882 812 1025 897 848 961 907 857 912 1052 1102 1179 1033 1155 1067 1296 1105 993 871 825 663 1007 1337
1321 1241 1181 1033 54 37 93 107 76 87 88 79 34 16 11 30 8 35 29 39 190 151 126 210 921 1010 1036 1108 1008 1009 898 944 889 973 1054 1263 1121 1025 988 1104 1083 1266 1119 938 710 665 1184 1513 1349
1324 1265 1339 362 39 32 135 45 61 72 98 48 92 0 0 0 0 9 21 88 97 175 215 384 1080 1240 1167 1150 1036 982 1061 1085 1156 1016 996 1394 882 1062 1102 1073 1000 1260 924 945 910 1047 865 1095 961
1377 1617 574 11 12 2 96 89 79 112 133 28 33 6 0 0 2 51 146 159 169 203 172 367 947 968 962 1004 978 1014 1033 954 836 1005 1169 1101 973 1168 1140 970 1056 1189 835 1006 943 955 841 826 962
5 40 674 79 30 2 6 30 44 134 135 89 143 16 0 0 3 79 141 178 254 218 137 298 876 984 978 1063 1238 1146 1063 959 917 925 1041 1142 1152 916 1250 1305 1155 1141 1204 1083 902 599 522 671 788
2 26 0 25 38 8 0 31 53 62 98 80 69 113 1 0 52 112 210 203 225 144 69 83 384 908 1031 1076 1056 995 1046 964 951 1027 775 1051 826 1170 1016 1351 1293 1229 1311 1060 916 765 742 705 537
62 31 1 34 46 0 0 0 2 73 148 96 174 139 0 0 17 47 133 197 122 195 48 38 112 183 273 599 1039 1119 1077 1038 1200 1382 1110 1206 1283 1223 1011 1305 1426 1242 1011 1084 748 686 537 392 284
1 585 170 141 94 22 0 0 0 5 39 99 160 160 0 0 0 70 77 52 108 130 25 28 101 307 338 757 1091 1253 1363 1336 1069 864 768 1001 815 902 1062 1066 1347 1353 1106 1012 816 651 538 209 132
336 564 22 119 155 114 0 0 0 0 15 222 133 13 0 0 9 41 97 135 143 116 84 92 134 180 477 562 744 822 1046 836 740 799 797 753 791 600 845 791 1368 1267 1252 791 813 714 680 413 144
577 403 202 103 360 299 85 10 7 5 9 36 0 0 0 0 0 0 37 76 150 153 118 208 246 517 400 780 484 883 1148 793 611 819 659 920 911 813 665 966 1015 1163 1256 1101 278 371 583 759 384
310 350 136 306 453 422 413 69 98 113 43 0 0 0 0 0 0 0 27 41 34 63 148 230 261 305 574 349 754 1341 1017 667 888 1176 1047 852 778 855 452 583 488 629 863 909 612 324 382 993 708
53 169 239 416 536 602 505 339 225 96 51 8 0 0 0 0 0 0 0 17 32 31 186 184 400 202 902 779 606 881 743 784 847 1022 766 766 776 535 407 290 534 285 623 611 1143 762 340 357 133
72 284 204 409 523 592 640 359 444 248 64 22 0 0 0 0 0 0 0 36 75 119 308 368 800 1023 1021 1275 1156 537 843 666 588 971 616 981 765 553 679 590 437 364 582 422 638 287 474 633 286
44 74 17 385 536 327 2 87 397 443 118 100 11 0 0 0 0 0 21 85 138 176 227 577 674 875 985 1317 855 163 566 803 906 650 895 1147 1398 873 808 276 99 93 459 683 530 200 154 32 48
3 4 48 387 648 231 66 5 125 538 281 202 120 18 20 11 0 15 4 106 148 343 292 306 346 823 1005 979 602 785 918 975 536 1019 1507 1683 1293 764 1068 329 92 149 371 865 558 547 145 115 160
0 8 0 216 295 511 315 207 374 720 496 335 268 176 84 54 82 114 161 266 282 366 473 300 462 557 1070 1032 1543 871 1164 807 705 830 866 1422 1355 946 519 650 209 129 563 789 582 699 741 681 556
0 27 8 84 13 7 90 478 793 705 751 564 447 407 287 214 157 165 212 226 238 276 288 287 391 546 658 735 1062 1209 1087 1123 803 680 1006 1219 1038 1147 380 797 236 212 648 752 702 858 1080 750 802
62 30 115 55 8 0 63 269 787 645 768 802 688 582 533 417 357 210 189 141 120 168 307 262 404 659 743 451 738 1435 1277 1053 811 1166 1003 1238 1007 1244 861 1035 540 574 760 668 743 692 879 980 883
0 0 55 9 19 85 0 133 553 550 506 772 856 856 728 609 520 445 229 70 42 311 479 575 483 782 887 1161 1044 1087 1232 1265 981 832 867 1550 1382 1451 1546 568 774 715 969 860 862 1065 928 921 867
0 0 0 8 88 116 1 159 143 8 340 420 693 936 968 788 599 512 332 79 89 381 455 847 520 734 598 816 1154 1109 1219 613 136 1 50 1101 1449 1528 1475 1248 1110 1049 1032 772 854 1096 977 752 914
0 0 0 0 0 80 97 230 124 18 26 439 460 698 915 921 783 616 444 179 180 463 694 941 525 1147 877 837 1506 1517 1287 1035 397 145 30 1239 1636 1607 1757 1364 1503 1186 1204 1202 841 1003 1157 924 897
0 0 0 0 0 2 112 166 191 33 15 558 458 670 635 934 933 804 581 341 206 364 719 1049 872 1479 1329 1134 1653 1632 1448 1568 749 4 53 1056 1396 1734 1585 1674 1868 1614 1267 1182 1285 1158 1403 1236 1066
0 0 0 0 0 0 20 130 46 45 11 12 0 105 445 696 1019 981 732 499 345 365 670 867 1514 1382 1882 2039 1580 1785 1827 1356 1742 881 647 998 1373 1697 1375 1551 1613 1697 1004 1269 1317 1410 1206 1350 1465
0 0 0 0 0 7 17 108 34 12 42 1 13 3 13 446 1164 1082 803 548 429 339 510 671 1450 1790 1914 2635 2410 1616 1520 2123 1471 1328 1006 1708 1425 1566 1732 1751 1510 1080 1634 1630 1276 1518 1660 1509 1698
0 0 0 0 11 0 1 15 2 0 153 133 261 210 359 167 1073 1211 1014 651 548 426 542 662 1355 1724 2211 1794 2745 2750 2088 2345 2264 1841 1881 1888 963 1135 1905 1819 1782 867 1419 1927 1942 1830 1419 1753 1760
0 0 0 0 0 0 0 0 2 69 80 203 623 827 1010 807 883 1288 1096 769 687 565 698 782 1383 1810 1990 2422 2379 2950 3004 2599 2022 2073 2053 1773 2095 1168 1571 1566 1624 1581 1502 1914 1617 1315 1439 1776 1550
0 0 0 0 0 5 48 208 239 118 38 211 789 1198 1777 1430 1061 1329 1176 915 884 740 862 878 1516 1926 2185 2379 2627 2934 3248 3163 2717 2659 2691 1935 1857 1800 1485 1707 2130 1728 1583 1778 1933 1617 1551 1607 1816
0 0 0 0 7 0 0 113 185 324 324 428 863 1747 1943 1719 1277 1184 840 971 910 911 957 1099 1792 2196 2489 2461 2443 2695 2773 2980 3074 2789 2716 2851 1850 2562 1838 1887 1995 2022 1819 1872 1822 1695 1611 1475 1170
0 0 0 0 0 0 32 290 109 268 613 968 1383 1745 2057 1893 1721 1261 1089 917 1000 831 893 1104 1705 2339 2288 2141 2309 2644 2696 2658 2888 2676 2789 2621 2542 2365 2407 2073 2323 2311 1842 2051 1841 1734 1461 1590 1568
CIN
-54 -30 -0 -2 -0 -27 -10 -5 -8 -2 -6 -28 -12 -31 -54 -27 -4 -9 -1 -53 -15 -3 -3 -8 -0 -0 -6 -0 -0 -22 -2 -0 -0 -0 -7 -1 -0 -0 -0 -0 -0 -0 -0 -0 -17 -4 -9 -15 -0
-31 -5 -1 -1 -26 -6 -5 -7 -0 -2 -29 -95 -100 -2 -37 -13 -27 -9 -22 -0 -27 -1 -4 -13 -0 -3 -0 -10 -0 -0 -0 -2 -1 -0 -0 -0 -0 -0 -0 -0 -0 -0 -0 -4 -0 -0 -1 -5 -1
-17 -7 -0 -14 -3 -3 -13 -18 -14 -3 -13 -42 -59 -75 -76 -35 -44 -31 -33 -19 -22 -14 -1 -16 -0 -0 -0 -0 -0 -0 -7 -0 -4 -1 -0 -0 -0 -0 -0 -0 -0 -0 -0 -5 -6 -3 -0 -0 -2
-30 -7 -4 -13 -2 -1 -21 -17 -28 -19 -14 -45 -29 -0 -0 -0 -0 -14 -54 -43 -22 -7 -1 -19 -0 -0 -0 -0 -0 -0 -0 -0 -0 -0 -0 -0 -0 -0 -0 -0 -0 -0 -0 -0 -0 -0 -0 -0 -11
-7 -3 -32 -2 -0 -1 -13 -28 -14 -16 -5 -73 -75 -135 -0 -0 -49 -14 -30 -20 -7 -4 -28 -19 -0 -0 -0 -0 -0 -0 -0 -0 -1 -0 -5 -0 -0 -0 -0 -0 -0 -0 -4 -0 -0 -0 -2 -8 -15
-56 -7 -14 -4 -2 -1 -1 -12 -33 -14 -3 -16 -29 -88 -0 -0 -35 -31 -37 -34 -15 -24 -13 -20 -0 -0 -0 -0 -0 -0 -0 -0 -2 -5 -1 -0 -0 -0 -0 -0 -0 -0 -0 -0 -0 -12 -18 -14 -17
-114 -68 -0 -13 -3 -5 -0 -4 -2 -33 -17 -18 -79 -29 -0 -0 -55 -22 -33 -16 -19 -6 -26 -30 -12 -2 -0 -0 -0 -0 -0 -0 -0 -2 -1 -1 -4 -0 -0 -0 -0 -0 -0 -0 -0 -8 -9 -16 -33
-374 -122 -2 -43 -11 -0 -0 -0 -4 -43 -11 -63 -47 -76 -0 -0 -43 -35 -54 -27 -20 -9 -42 -49 -33 -41 -28 -13 -3 -0 -0 -0 -0 -0 -0 -0 -0 -0 -2 -0 -0 -0 -0 -0 -9 -14 -26 -42 -50
-161 -143 -6 -23 -18 -20 -0 -0 -0 -22 -40 -31 -28 -14 -0 -0 -11 -55 -46 -18 -5 -4 -15 -49 -45 -21 -9 -15 -17 -4 -0 -0 -4 -13 -11 -11 -6 -9 -5 -3 -1 -0 -0 -0 -14 -21 -30 -59 -66
-214 -46 -5 -5 -6 -11 -0 -0 -0 -7 -57 -8 -80 -53 -0 -0 -80 -46 -39 -18 -32 -23 -6 -6 -20 -22 -3 -3 -30 -24 -11 -16 -26 -12 -10 -19 -6 -20 -0 -5 -2 -5 -0 -12 -21 -28 -34 -46 -26
-39 -1 -6 -18 -3 -2 -11 -47 -2 -3 -8 -73 -0 -0 -0 -0 -0 -0 -40 -58 -4 -8 -13 -11 -19 -5 -13 -18 -38 -37 -30 -20 -13 -3 -9 -5 -3 -8 -18 -18 -7 -10 -6 -9 -45 -45 -40 -21 -26
-5 -4 -21 -7 -20 -4 -2 -6 -1 -23 -39 -0 -0 -0 -0 -0 -0 -0 -146 -86 -89 -57 -36 -21 -53 -45 -26 -44 -33 -9 -15 -15 -19 -5 -2 -5 -12 -13 -11 -9 -8 -12 -8 -7 -16 -14 -24 -10 -26
-37 -31 -8 -25 -27 -2 -3 -4 -1 -22 -68 -173 -0 -0 -0 -0 -0 -0 -0 -160 -137 -120 -57 -20 -52 -84 -4 -13 -17 -11 -14 -25 -26 -7 -10 -6 -3 -18 -20 -37 -21 -37 -4 -7 -6 -7 -10 -8 -9
-31 -14 -9 -8 -21 -9 -51 -102 -21 -13 -70 -174 -0 -0 -0 -0 -0 -0 -91 -145 -113 -45 -23 -12 -11 -10 -7 -9 -22 -21 -18 -13 -15 -6 -19 -5 -16 -16 -17 -25 -29 -31 -22 -12 -10 -24 -5 -9 -22
-41 -65 -5 -7 -1 -152 -149 -153 -60 -17 -89 -125 -192 -0 -0 -0 -0 -0 -108 -33 -29 -33 -15 -4 -3 -31 -15 -17 -34 -85 -24 -21 -13 -11 -19 -9 -9 -17 -29 -62 -89 -70 -38 -10 -12 -16 -28 -55 -46
-27 -164 -124 -9 -8 -198 -279 -48 -142 -48 -82 -96 -157 -183 -184 -145 -0 -88 -16 -54 -49 -6 -12 -20 -6 -33 -45 -64 -70 -29 -17 -5 -12 -8 -5 -6 -8 -13 -4 -53 -78 -66 -37 -14 -14 -14 -34 -42 -41
-0 -71 -30 -1 -5 -29 -99 -83 -114 -34 -74 -98 -108 -130 -138 -140 -105 -82 -59 -23 -16 -5 -15 -36 -24 -34 -54 -49 -19 -28 -10 -9 -13 -12 -9 -5 -5 -17 -38 -33 -60 -57 -28 -6 -8 -5 -18 -34 -38
-0 -75 -67 -24 -13 -7 -20 -48 -13 -26 -56 -81 -92 -82 -108 -111 -106 -76 -47 -35 -21 -20 -21 -27 -23 -21 -65 -67 -38 -26 -6 -2 -11 -13 -10 -7 -10 -10 -78 -27 -54 -53 -26 -4 -5 -9 -11 -21 -28
-64 -38 -7 -44 -103 -0 -4 -4 -12 -10 -32 -56 -51 -70 -73 -76 -66 -79 -86 -87 -89 -68 -32 -52 -21 -22 -67 -84 -44 -9 -3 -6 -6 -9 -8 -15 -22 -9 -24 -14 -48 -31 -23 -14 -14 -19 -15 -8 -14
-0 -0 -27 -151 -173 -87 -0 -3 -6 -43 -19 -26 -30 -32 -48 -68 -74 -84 -116 -142 -167 -50 -34 -28 -21 -24 -38 -27 -30 -15 -8 -11 -20 -32 -19 -5 -9 -10 -4 -31 -24 -25 -17 -14 -12 -4 -6 -22 -17
-0 -0 -0 -47 -163 -132 -15 -26 -71 -90 -49 -5 -2 -9 -31 -51 -80 -102 -126 -196 -169 -66 -60 -26 -50 -47 -52 -8 -3 -10 -17 -40 -70 -77 -166 -14 -4 -10 -3 -16 -20 -13 -23 -24 -18 -13 -12 -26 -23
-0 -0 -0 -0 -0 -47 -12 -30 -213 -312 -127 -64 -25 -11 -19 -56 -75 -92 -133 -186 -174 -97 -56 -39 -85 -29 -58 -23 -2 -5 -10 -6 -83 -106 -134 -9 -11 -4 -1 -11 -15 -11 -12 -6 -16 -23 -10 -19 -13
-0 -0 -0 -0 -0 -25 -21 -10 -143 -247 -69 -49 -8 -14 -16 -34 -75 -92 -119 -172 -187 -136 -81 -31 -72 -17 -34 -44 -13 -3 -5 -5 -79 -86 -122 -3 -16 -6 -3 -8 -2 -10 -12 -9 -6 -12 -10 -14 -12
-0 -0 -0 -0 -0 -8 -83 -23 -206 -122 -71 -46 -0 -34 -30 -16 -71 -80 -125 -148 -177 -151 -98 -67 -32 -45 -11 -18 -20 -20 -4 -13 -6 -59 -59 -22 -20 -13 -8 -8 -19 -12 -27 -7 -5 -18 -20 -17 -14
-0 -0 -0 -2 -0 -35 -47 -39 -35 -61 -17 -2 -153 -67 -119 -30 -54 -90 -117 -143 -182 -186 -164 -126 -45 -32 -37 -4 -30 -43 -29 -15 -15 -21 -27 -10 -12 -8 -25 -18 -31 -45 -15 -3 -19 -19 -16 -17 -13
-0 -0 -0 -5 -45 -13 -17 -78 -26 -0 -0 -7 -31 -44 -15 -52 -25 -85 -96 -134 -169 -178 -177 -157 -84 -47 -40 -57 -21 -37 -48 -26 -23 -16 -16 -6 -28 -29 -21 -33 -25 -66 -26 -3 -11 -13 -28 -8 -10
-0 -0 -0 -0 -0 -0 -0 -2 -19 -4 -15 -7 -19 -39 -36 -19 -4 -60 -76 -120 -142 -148 -147 -144 -86 -68 -59 -54 -52 -41 -45 -46 -50 -37 -19 -12 -8 -24 -22 -45 -38 -20 -22 -6 -16 -25 -17 -2 -8
-0 -0 -0 -0 -0 -23 -25 -24 -48 -21 -40 -25 -27 -36 -42 -19 -2 -22 -37 -89 -120 -135 -115 -125 -64 -67 -67 -66 -61 -50 -40 -45 -43 -29 -17 -22 -8 -11 -27 -5 -13 -19 -16 -1 -4 -12 -7 -2 -5
-0 -0 -0 -0 -2 -0 -0 -8 -12 -37 -48 -32 -27 -43 -42 -25 -1 -27 -64 -79 -82 -79 -84 -77 -36 -53 -51 -52 -55 -59 -57 -55 -55 -37 -26 -17 -18 -6 -27 -9 -8 -12 -8 -3 -7 -10 -3 -11 -14
-0 -0 -0 -0 -1 -3 -11 -47 -33 -26 -11 -4 -33 -42 -38 -68 -61 -39 -9 -35 -22 -29 -23 -12 -17 -46 -76 -51 -45 -44 -52 -51 -50 -64 -27 -30 -30 -17 -19 -34 -21 -11 -14 -4 -7 -13 -9 -3 -6
Wind_Speed
25 23 22 19 15 11 16 13 11 12 11 11 10 7 7 9 10 6 4 5 13 12 6 18 18 23 27 30 30 30 30 30 28 25 24 22 22 23 23 22 20 20 26 28 31 31 31 31 29
22 20 17 15 16 13 17 16 13 12 12 12 9 7 9 10 9 7 3 7 5 14 16 7 9 21 24 27 29 26 29 28 27 24 23 22 22 21 20 22 24 26 28 29 31 31 31 29 28
17 16 14 17 11 22 20 20 15 13 13 12 9 9 11 9 4 6 9 12 5 6 8 5 4 17 22 26 22 25 28 27 26 24 23 22 20 21 23 24 25 27 28 28 28 29 29 29 28
16 15 15 15 25 24 25 23 20 16 12 12 11 11 10 11 7 5 9 8 6 4 4 7 9 18 20 27 25 27 27 25 23 22 21 22 21 20 22 24 25 26 26 27 27 26 26 27 27
14 13 14 28 27 27 26 25 24 20 16 14 12 10 8 9 2 7 7 9 6 3 7 8 4 12 18 24 27 27 26 24 22 20 19 20 20 20 22 23 24 25 25 25 26 25 24 24 24
11 8 15 28 27 27 26 25 25 25 20 15 14 9 11 18 15 5 10 13 7 13 11 5 5 5 10 28 27 26 25 23 22 20 19 19 20 20 21 22 23 24 23 24 24 24 23 23 22
31 19 10 27 28 26 26 25 25 23 22 19 15 13 12 19 22 7 24 29 13 16 9 4 4 12 23 28 27 25 24 22 21 20 19 18 19 20 20 21 21 22 22 22 23 23 22 22 22
19 15 25 27 30 28 26 27 25 25 26 25 22 13 17 23 23 7 19 24 26 16 7 4 2 5 29 28 26 24 23 22 21 19 19 19 18 19 20 21 21 20 20 20 21 21 21 20 20
24 25 27 26 30 27 26 28 26 27 26 23 20 18 24 25 23 18 18 25 18 8 5 8 3 26 29 23 25 24 22 21 21 20 20 19 18 18 18 20 20 20 19 19 20 20 19 20 19
16 23 33 33 31 27 27 29 27 27 26 29 29 29 30 30 26 21 27 10 9 24 8 4 28 27 3 27 18 21 21 21 21 20 20 19 18 18 17 17 17 18 19 19 20 19 19 19 19
9 17 32 31 29 26 28 26 24 25 26 25 29 33 34 33 32 38 34 32 5 17 20 8 31 10 27 11 18 21 21 22 21 21 19 19 18 18 17 16 15 16 17 18 19 19 18 19 17
20 24 27 27 26 25 25 24 23 21 26 27 29 32 34 35 36 36 34 32 32 33 31 31 18 9 25 17 20 20 16 21 21 21 19 16 17 17 16 16 14 14 16 18 18 17 16 16 17
22 20 23 24 23 24 22 22 22 26 27 28 29 30 31 33 35 34 32 32 34 33 33 27 16 28 27 19 22 15 17 20 20 15 16 18 13 15 14 16 15 18 18 18 18 17 16 15 14
7 12 19 19 20 21 23 14 14 23 24 26 27 28 29 31 32 33 32 30 32 29 30 25 23 15 11 9 20 16 19 19 16 12 11 11 10 12 13 13 13 13 18 20 14 15 12 12 16
25 23 18 18 17 18 23 9 16 21 22 24 25 25 26 28 31 30 30 28 27 27 26 24 14 8 7 4 7 15 21 20 12 8 10 10 10 10 12 11 11 15 19 19 16 12 14 20 20
30 24 11 17 16 16 18 15 18 22 22 22 22 24 24 26 28 28 27 24 24 25 17 13 13 11 10 7 10 11 13 10 9 9 11 10 10 10 7 11 13 19 20 18 17 17 19 21 20
15 10 16 13 15 15 14 12 20 25 21 21 22 22 22 24 26 26 26 27 23 21 14 15 10 10 8 8 4 7 7 6 6 6 7 8 9 10 10 12 14 20 20 19 19 19 22 21 20
13 5 12 11 17 15 9 14 19 22 21 20 21 20 21 21 22 24 24 23 24 20 18 15 13 9 8 4 6 8 7 9 6 6 6 6 11 9 11 12 12 20 21 21 21 23 22 19 19
4 20 23 22 25 23 15 15 14 14 18 17 17 17 19 19 21 22 22 22 21 20 20 18 17 14 11 8 6 2 5 3 5 4 8 5 9 9 11 12 13 22 21 21 22 23 21 20 19
30 29 21 23 28 25 18 20 7 8 10 15 17 17 17 19 20 21 21 21 20 19 16 14 16 13 16 13 11 17 11 9 3 21 26 8 7 8 9 11 13 18 20 19 23 23 20 18 20
29 29 30 19 9 17 17 16 17 14 12 11 14 16 16 18 18 19 21 20 19 19 18 16 15 13 13 9 8 13 7 20 23 18 18 22 6 6 7 7 9 14 16 16 17 23 22 19 18
29 27 27 28 21 24 13 17 21 5 9 17 9 12 15 15 16 18 20 20 21 19 19 18 19 15 15 17 16 17 11 3 3 26 19 15 9 9 5 5 6 7 14 22 15 20 21 20 19
27 28 28 29 29 28 26 14 9 7 7 10 8 9 10 14 14 16 17 19 21 20 19 18 19 19 19 21 24 21 20 18 9 11 21 16 11 12 9 5 8 4 14 13 14 19 18 14 11
24 25 23 17 19 27 21 11 9 12 11 11 11 8 7 9 13 14 15 18 19 20 20 19 19 21 21 21 25 24 18 19 10 14 14 16 13 12 14 4 6 9 28 23 8 10 16 15 12
22 24 28 24 15 11 23 14 10 13 16 14 15 15 9 4 11 13 15 17 18 20 20 20 19 19 21 23 23 24 21 17 15 12 13 15 14 15 16 14 13 20 28 15 16 13 13 13 9
21 24 22 26 25 25 20 20 6 4 13 17 18 20 18 14 9 12 13 13 16 19 19 20 20 18 20 22 22 21 21 18 14 13 13 15 13 18 17 19 22 25 27 22 16 13 12 11 8
18 19 27 26 25 26 24 16 17 13 17 19 21 22 23 23 7 11 12 11 13 15 17 18 19 20 18 16 18 16 15 16 14 14 14 15 14 14 16 18 20 21 21 19 14 12 13 7 8
11 21 18 19 23 23 21 15 12 16 19 21 23 24 22 20 1 8 7 8 10 12 13 15 15 17 18 16 13 13 11 11 14 14 14 12 18 10 9 17 16 14 16 15 8 10 9 6 7
19 26 25 26 25 25 23 15 13 15 17 20 21 23 20 16 6 11 15 10 8 8 9 13 14 14 13 15 13 12 11 10 10 16 13 11 16 9 11 16 17 16 18 14 11 15 8 8 6
26 20 19 23 21 27 29 15 24 20 17 19 19 19 18 16 19 22 10 6 5 7 8 15 17 15 14 12 12 10 10 10 9 12 16 16 14 18 8 11 14 16 19 19 19 19 16 7 6
Wind_Direction
131 135 132 126 154 193 344 332 4 12 346 356 356 6 25 323 292 334 120 195 191 94 101 192 180 102 108 117 119 114 112 119 122 128 127 129 124 118 113 114 125 131 108 103 84 84 88 96 90
140 137 140 142 136 340 353 46 359 347 20 44 4 5 348 339 7 83 118 120 163 99 99 100 192 101 105 112 117 104 122 126 127 131 129 124 123 123 122 116 111 104 92 87 87 96 97 91 88
163 154 145 121 26 23 33 45 43 33 41 6 343 353 326 313 328 270 112 110 172 117 99 113 150 99 106 113 98 107 137 131 125 125 126 121 127 118 107 98 98 93 90 81 95 93 102 103 92
145 148 145 128 32 21 68 66 76 65 38 356 41 352 350 290 285 232 121 203 191 140 135 106 99 100 102 121 115 128 146 150 145 134 126 112 121 120 114 93 94 94 90 84 91 93 98 96 99
164 167 151 70 61 61 73 69 74 78 55 62 47 9 9 39 310 182 188 196 133 149 103 106 124 95 101 115 131 139 152 156 156 155 145 129 120 115 99 86 96 95 89 89 92 95 97 97 102
319 199 134 47 77 76 71 84 77 76 68 70 42 44 50 100 98 165 209 209 142 108 102 126 199 217 221 169 159 152 158 154 150 155 155 141 117 121 97 81 93 96 90 88 91 97 99 99 101
117 112 15 80 77 82 80 78 64 73 87 84 73 58 74 113 121 206 206 202 201 113 108 135 200 221 201 169 155 163 166 164 156 152 161 153 124 120 118 102 85 93 91 88 93 93 95 102 105
110 148 99 91 75 77 87 80 87 77 56 77 99 63 118 126 123 135 217 213 206 207 112 127 181 233 171 168 171 167 171 175 173 163 162 146 130 127 125 117 104 91 88 96 98 100 101 102 112
107 97 88 66 60 79 86 73 82 70 88 96 108 85 120 123 121 118 213 205 222 167 123 117 121 138 161 136 154 157 159 160 166 160 161 153 147 124 117 126 105 103 92 102 110 107 109 114 120
107 93 58 49 64 83 73 71 88 86 83 65 61 87 113 124 124 124 202 216 206 207 165 146 144 147 205 149 114 144 152 152 160 153 144 155 145 143 117 94 98 99 102 106 121 119 122 124 105
125 92 61 67 74 86 71 78 90 82 81 87 92 103 118 127 129 155 165 169 188 222 217 233 189 212 152 117 122 143 147 159 160 158 153 148 128 119 95 92 93 97 109 107 120 120 128 126 136
102 81 77 78 85 85 77 87 88 92 81 91 103 110 117 127 137 144 143 153 181 187 188 185 225 251 197 124 136 145 118 151 150 146 143 113 136 142 94 111 85 90 114 133 136 123 126 153 134
14 78 78 71 80 75 86 82 89 75 85 90 105 115 121 129 137 143 151 158 169 169 177 149 124 162 167 128 174 242 137 150 146 118 123 137 89 123 93 117 52 126 152 128 134 129 132 93 122
234 104 57 60 60 60 57 123 121 90 96 96 108 120 128 137 143 149 158 155 163 169 158 151 138 117 104 95 237 262 226 224 126 112 80 91 5 92 75 79 78 116 170 171 198 99 87 315 227
317 296 328 72 66 61 25 212 131 113 107 108 113 123 132 142 152 153 161 153 153 152 152 144 118 99 97 4 310 264 224 224 265 41 72 83 78 38 44 69 76 143 171 158 116 56 81 200 195
332 299 228 66 69 75 41 197 179 136 118 122 121 126 132 144 153 161 159 154 155 157 141 135 132 121 122 100 103 111 124 95 330 66 89 89 84 54 315 85 107 158 160 167 114 113 137 166 175
8 207 245 90 73 82 65 136 174 123 124 131 134 133 136 144 156 158 162 168 157 155 144 147 141 139 126 118 58 102 86 32 53 19 85 71 84 29 67 108 125 154 160 160 114 120 154 158 160
28 96 203 34 23 17 151 89 105 110 121 134 136 139 143 148 155 158 163 159 163 152 149 147 148 145 139 118 115 125 335 326 355 5 34 58 345 36 86 100 105 148 157 148 135 154 165 159 171
101 245 283 316 301 289 233 48 94 95 123 124 135 136 146 152 156 161 158 156 160 152 152 150 151 144 142 130 128 348 336 52 94 37 124 63 68 55 87 97 100 143 144 141 144 158 171 168 189
278 270 316 329 296 261 229 338 43 42 95 123 138 145 152 150 155 155 156 160 157 156 149 147 152 143 145 135 133 160 144 134 4 269 237 121 45 38 56 65 99 126 131 132 146 158 193 203 192
270 272 274 333 187 221 201 335 346 334 288 64 127 146 144 152 152 151 158 159 156 157 152 149 153 151 150 133 126 150 330 261 261 287 280 192 48 41 21 46 75 117 116 118 127 197 199 202 216
277 291 298 298 291 241 299 331 313 35 195 328 84 129 145 144 149 152 155 156 162 155 152 151 156 151 151 155 151 159 149 103 19 250 197 158 70 103 78 6 8 80 115 159 120 146 151 161 215
284 283 292 284 266 252 239 307 22 73 18 285 86 108 135 147 145 153 152 155 163 154 151 153 156 157 156 158 172 167 172 166 83 119 223 183 111 125 125 61 307 37 259 109 121 138 139 116 76
263 262 244 250 294 284 226 309 356 350 129 89 30 55 91 149 146 149 145 151 154 156 154 154 155 161 161 157 169 176 162 177 92 113 142 163 125 125 148 8 304 289 192 217 111 91 138 132 113
224 255 277 290 300 251 319 354 30 124 128 3 355 357 11 100 153 148 146 146 148 157 155 156 155 159 162 163 164 173 173 172 169 115 127 148 111 135 141 135 135 235 203 258 136 127 128 134 105
286 282 294 292 263 285 319 312 23 339 17 7 8 351 345 331 170 155 149 142 144 154 154 155 157 158 161 167 169 169 174 172 159 153 153 152 133 153 140 141 154 170 187 167 139 132 137 129 92
248 238 306 281 291 293 288 7 77 39 18 10 7 360 340 319 163 156 153 144 145 148 154 155 156 160 161 165 169 167 165 170 167 165 161 165 167 138 141 139 149 159 166 160 143 139 143 92 99
123 284 267 265 265 279 307 325 335 354 354 358 358 356 351 325 64 152 167 158 154 154 156 159 156 160 162 162 165 169 165 165 173 168 163 149 175 82 83 145 140 138 152 152 131 139 136 108 97
312 272 272 277 256 279 265 345 359 345 343 347 360 1 359 337 324 178 174 170 167 166 159 161 157 157 160 165 162 166 168 165 165 177 164 151 160 113 111 138 147 145 154 150 148 164 132 141 120
313 316 235 278 298 273 284 329 332 338 2 4 3 10 353 324 293 301 27 311 229 166 151 159 163 155 154 158 164 164 162 162 160 167 173 167 161 166 121 133 146 152 165 165 167 174 171 134 131